(4527) Schoenberg = 1982 OK = 1985 KO

Discovered at Anderson Mesa on 1982-07-24 by E. Bowell.
(4527) Schoenberg = 1982 OK

Named for Arnold Schoenberg (1874-1951), Austrian composer. One of the twentieth century's seminal composers, Schoenberg developed the dodecaphonic system of composition. He was founder of the so-called Second Viennese School, whose followers included Alban Berg and Anton Webern. [Ref: Minor Planet Circ. 16886]

Orbit

Orbit type: Main Belt

Note: WebGL enabled browser required.

epoch2024-03-31.0
epoch JD2460400.5
perihelion date2022-09-19.50370
perihelion JD2459842.00370
argument of perihelion (°)172.11783
ascending node (°)146.00046
inclination (°)4.24221
eccentricity0.2118802
perihelion distance (AU)1.7624664
Tisserand w.r.t. Jupiter3.6
ΔV w.r.t. Earth (km/sec)8.3
semimajor axis (AU)2.2362926
mean anomaly (°)164.60053
mean daily motion (°/day)0.29472090
aphelion distance (AU)2.710
period (years)3.34
P-vector [x]0.74473484
P-vector [y]-0.61625574
P-vector [z]-0.25612280
Q-vector [x]0.66607731
Q-vector [y]0.71017059
Q-vector [z]0.22803233
absolute magnitude14.05
phase slope0.15
uncertainty0
referenceMPEC 2024-F02
observations used3280
oppositions26
arc length (days)15210
first opposition used1982
last opposition used2024
residual rms (arc-secs)0.59
perturbers coarse indicatorM-v
perturbers precise indicator003Ek
first observation date used1982-07-24.0
last observation date used2024-03-15.0
computer nameMPCLINUX
JD of orbit computation2456760.851521
perihelion JD uncertainty (days)3.3554E-05
argument of perihelion uncertainty (°)4.6563E-05
ascending node uncertainty (°)4.5823E-05
inclination uncertainty (°)4.0687E-06
eccentricity uncertainty 3.5573E-08
perihelion distance uncertainty (AU)7.9672E-08
Minimum Orbit Intersection Distances (in AU)
for orbit epoch: 2460400.5, reference: E2024-GD4
Mercury1.3414
Venus1.03667
Earth0.74919
Mars0.38019
Jupiter2.5841
Saturn6.42855
Uranus15.7655
Neptune27.485

Observations

3321 total observations over interval: 1982 07 24.38056 – 2024 03 15.309859
These data are available for download (format description).

Date (UT) J2000 RA J2000 Dec Magn Location Ref
1982 07 24.38056 22 41 32.28 -07 00 13.4 16.8   688 – Lowell Observatory, Anderson Mesa Station MPC 7205
1982 07 24.43611 22 41 32.33 -07 00 25.4   688 – Lowell Observatory, Anderson Mesa Station MPC 7205
1982 07 27.98584 22 41 30.58 -07 15 30.8 16.5   095 – Crimea-Nauchnyi MPC 13498
1982 08 14.87506 22 35 20.00 -09 17 25.8 16.5   095 – Crimea-Nauchnyi MPC 13498
1982 08 14.92639 22 35 18.26 -09 17 56.3 16.6   046 – Klet Observatory, Ceske Budejovice MPC 7174
1982 08 14.94132 22 35 17.68 -09 18 04.2   046 – Klet Observatory, Ceske Budejovice MPC 7174
1982 08 15.89584 22 34 43.46 -09 26 12.8 16.5   095 – Crimea-Nauchnyi MPC 13498
1982 08 16.20903 22 34 32.21 -09 28 41.6   809 – European Southern Observatory, La Silla MPC 8461
1982 08 16.21667 22 34 31.91 -09 28 45.5   809 – European Southern Observatory, La Silla MPC 8461
1982 08 16.22431 22 34 31.59 -09 28 49.6   809 – European Southern Observatory, La Silla MPC 8461
1982 08 16.89207 22 34 06.92 -09 34 49.2 16.0   095 – Crimea-Nauchnyi MPC 13498
1982 08 18.29306 22 33 13.31 -09 46 59.2   809 – European Southern Observatory, La Silla MPC 8461
1982 08 18.30069 22 33 13.02 -09 47 03.2   809 – European Southern Observatory, La Silla MPC 8461
1982 08 18.30833 22 33 12.66 -09 47 07.7   809 – European Southern Observatory, La Silla MPC 8461
1982 08 18.98220 22 32 46.60 -09 53 24.8   046 – Klet Observatory, Ceske Budejovice MPC 7174
1982 08 18.99672 22 32 46.06 -09 53 31.6   046 – Klet Observatory, Ceske Budejovice MPC 7174
1982 08 19.34166 22 32 32.68 -09 56 33.1 15.5   675 – Palomar Mountain MPC 8118
1982 08 19.36527 22 32 31.55 -09 56 46.8   675 – Palomar Mountain MPC 8118
1982 08 19.97465 22 32 07.20 -10 02 18.5   046 – Klet Observatory, Ceske Budejovice MPC 7174
1982 08 20.09097 22 32 03.02 -10 03 04.8   809 – European Southern Observatory, La Silla MPC 8461
1982 08 20.09861 22 32 02.74 -10 03 08.7   809 – European Southern Observatory, La Silla MPC 8461
1982 08 20.10625 22 32 02.37 -10 03 13.4   809 – European Southern Observatory, La Silla MPC 8461
1982 08 22.14444 22 30 38.87 -10 21 41.8   809 – European Southern Observatory, La Silla MPC 8461
1982 08 22.15208 22 30 38.52 -10 21 45.9   809 – European Southern Observatory, La Silla MPC 8461
1982 08 22.15972 22 30 38.15 -10 21 50.2   809 – European Southern Observatory, La Silla MPC 8461
1982 09 13.36805 22 16 09.65 -13 25 29.5 16   675 – Palomar Mountain MPC 8355
1982 09 13.38888 22 16 09.00 -13 25 38.2   675 – Palomar Mountain MPC 8355
1982 09 13.83403 22 15 56.29 -13 28 29.9 15.5   095 – Crimea-Nauchnyi MPC 13498
1982 09 20.78474 22 13 19.74 -14 06 43.7 16.0   095 – Crimea-Nauchnyi MPC 13498
1984 01 25.31458 08 34 35.93 +16 19 23.3   675 – Palomar Mountain MPC 24990
1984 01 26.29097 08 33 32.64 +16 24 34.0   675 – Palomar Mountain MPC 24990
1985 05 13.43958 16 00 29.85 -12 13 26.4 17.5   675 – Palomar Mountain MPC 10012
1985 05 14.41458 15 59 32.93 -12 09 21.0   675 – Palomar Mountain MPC 10012
1985 05 15.45555 15 58 31.72 -12 04 58.6   675 – Palomar Mountain MPC 10012
1985 05 24.97935 15 48 43.58 -11 29 23.7   046 – Klet Observatory, Ceske Budejovice MPC 9728
1985 05 24.99359 15 48 42.80 -11 29 21.8   046 – Klet Observatory, Ceske Budejovice MPC 9728
1988 04 09.90440 12 27 27.86 +02 29 37.0   054 – Brorfelde MPC 13228
1988 04 09.92176 12 27 26.83 +02 29 43.8   054 – Brorfelde MPC 13228
1988 04 15.93916 12 22 02.63 +03 08 42.4   054 – Brorfelde MPC 13228
1989 11 21.85417 02 55 00.12 +08 44 48.9   095 – Crimea-Nauchnyi MPC 16495
1989 11 21.86528 02 54 59.28 +08 44 45.0   095 – Crimea-Nauchnyi MPC 16495
1989 11 29.85764 02 48 19.35 +08 29 45.7   046 – Klet Observatory, Ceske Budejovice MPC 15781
1989 11 29.87176 02 48 18.64 +08 29 46.8   046 – Klet Observatory, Ceske Budejovice MPC 15781
1989 11 30.81447 02 47 38.19 +08 28 45.4   046 – Klet Observatory, Ceske Budejovice MPC 15781
1989 11 30.82859 02 47 37.59 +08 28 44.1   046 – Klet Observatory, Ceske Budejovice MPC 15781
1989 12 01.80347 02 46 54.04 +08 27 43.2   046 – Klet Observatory, Ceske Budejovice MPC 15781
1989 12 01.81753 02 46 53.46 +08 27 44.7   046 – Klet Observatory, Ceske Budejovice MPC 15781
1992 06 28.44340 21 44 50.86 -09 45 30.5   675 – Palomar Mountain MPC 29431
1992 06 28.47014 21 44 51.51 -09 45 29.5   675 – Palomar Mountain MPC 29431
1992 07 24.28542 21 45 34.48 -10 58 32.0   809 – European Southern Observatory, La Silla MPC 21488
1992 07 24.29583 21 45 34.17 -10 58 36.0   809 – European Southern Observatory, La Silla MPC 21488
1992 07 24.30625 21 45 33.82 -10 58 39.9   809 – European Southern Observatory, La Silla MPC 21488
1992 07 26.25625 21 44 44.90 -11 10 55.6 17.5   809 – European Southern Observatory, La Silla MPC 21489
1992 07 26.26667 21 44 44.53 -11 11 00.5   809 – European Southern Observatory, La Silla MPC 21489
1992 07 26.27708 21 44 44.15 -11 11 04.3   809 – European Southern Observatory, La Silla MPC 21489
1992 07 30.29444 21 42 43.53 -11 38 52.5   809 – European Southern Observatory, La Silla MPC 21489
1992 07 30.30486 21 42 43.09 -11 38 57.1   809 – European Southern Observatory, La Silla MPC 21489
1992 07 30.31528 21 42 42.67 -11 39 02.0   809 – European Southern Observatory, La Silla MPC 21489
1992 08 04.34549 21 39 41.71 -12 17 54.6   675 – Palomar Mountain MPC 20742
1992 08 05.31667 21 39 03.85 -12 25 46.1   675 – Palomar Mountain MPC 20742
1992 08 05.39844 21 39 00.34 -12 26 26.7   675 – Palomar Mountain MPC 20742
1992 08 07.29740 21 37 44.13 -12 42 04.3   675 – Palomar Mountain MPC 20742
1992 08 07.32986 21 37 42.66 -12 42 21.9   675 – Palomar Mountain MPC 20742
1992 08 08.01528 21 37 14.34 -12 48 07.2   010 – Caussols MPC 20680
1992 08 08.02569 21 37 13.88 -12 48 12.4   010 – Caussols MPC 20681
1992 08 08.03611 21 37 13.35 -12 48 18.0   010 – Caussols MPC 20681
1992 08 09.07662 21 36 29.95 -12 57 02.7 17.9   010 – Caussols MPC 20681
1992 08 09.08704 21 36 29.44 -12 57 07.8   010 – Caussols MPC 20681
1992 08 09.09745 21 36 28.99 -12 57 12.8   010 – Caussols MPC 20681
1994 01 30.90289 08 10 10.42 +17 33 09.4   010 – Caussols MPC 23270
1994 01 30.91481 08 10 09.66 +17 33 13.5   010 – Caussols MPC 23270
1997 12 04.17070 12 04 45.25 +00 33 03.4 20.7 V 910 – Caussols-ODAS MPS 260
1997 12 04.19364 12 04 46.80 +00 32 54.9 20.4 V 910 – Caussols-ODAS MPS 260
1997 12 04.21693 12 04 48.32 +00 32 45.8 20.8 V 910 – Caussols-ODAS MPS 260
1997 12 06.17305 12 06 59.66 +00 20 55.4 20.3 V 910 – Caussols-ODAS MPS 260
1997 12 06.18943 12 07 00.75 +00 20 49.5 20.8 V 910 – Caussols-ODAS MPS 260
1997 12 06.20669 12 07 01.87 +00 20 43.4 20.5 V 910 – Caussols-ODAS MPS 260
1998 02 24.61965 12 43 53.92 -01 02 54.0 18.3 V 566 – Haleakala-NEAT/GEODSS MPS 609
1998 02 24.62975 12 43 53.59 -01 02 50.5 18.3 V 566 – Haleakala-NEAT/GEODSS MPS 609
1998 02 24.63960 12 43 53.31 -01 02 47.3 18.2 V 566 – Haleakala-NEAT/GEODSS MPS 609
1998 02 28.27153 12 42 00.45 -00 41 38.7   809 – European Southern Observatory, La Silla MPS 9591
1998 02 28.31319 12 41 58.99 -00 41 25.0   809 – European Southern Observatory, La Silla MPS 9591
1998 03 19.08848 12 27 34.59 +01 33 26.6 17.5 V 104 – San Marcello Pistoiese MPS 839
1998 03 19.10370 12 27 33.73 +01 33 33.5   104 – San Marcello Pistoiese MPS 839
1998 03 19.12234 12 27 32.67 +01 33 42.0   104 – San Marcello Pistoiese MPS 839
1998 03 19.12592 12 27 32.50 +01 33 43.6   104 – San Marcello Pistoiese MPS 839
1998 03 19.81256 12 26 54.71 +01 39 09.8 18.0 V 104 – San Marcello Pistoiese MPS 839
1998 03 19.81968 12 26 54.32 +01 39 12.8   104 – San Marcello Pistoiese MPS 839
1998 03 19.82454 12 26 54.03 +01 39 15.3   104 – San Marcello Pistoiese MPS 839
1998 03 20.22562 12 26 31.48 +01 42 26.9 17.7   704 – Lincoln Laboratory ETS, New Mexico MPS 839
1998 03 20.24574 12 26 30.36 +01 42 35.8 17.7   704 – Lincoln Laboratory ETS, New Mexico MPS 839
